When you browse on this site, cookies collect data to enhance your experience and personalize the content and advertising you see.
Visit our Privacy Policy to learn more. By continuing to use the site, you agree to this use of cookies and data.
  • In Lithuania
  • List of Countries
  • For 7 days
  • Water Temperature
  • Satellite Maps
  • Weather Map
  • Weather Widgets
  • user-avatar
    Login

    Hourly Weather Kashino

    Today, 26 June, Wednesday

    Time Temperature Precipitation Wind Pressure Humidity
    00:00 +14°C° 0 mm 1 mps 752 mmHg 70%
    01:00 +14°C° 0 mm 1 mps 752 mmHg 71%
    02:00 +13°C° 0 mm 1 mps 752 mmHg 73%
    03:00 +13°C° 0 mm 1 mps 752 mmHg 72%
    04:00 +14°C° 0 mm 1 mps 752 mmHg 74%
    05:00 +14°C° 0 mm 1 mps 752 mmHg 75%
    06:00 +15°C° 0 mm 1 mps 752 mmHg 77%
    07:00 +18°C° 0 mm 1 mps 752 mmHg 73%
    08:00 +18°C° 0 mm 2 mps 752 mmHg 69%
    09:00 +19°C° 0 mm 2 mps 751 mmHg 66%
    10:00 +20°C° 0 mm 2 mps 751 mmHg 64%
    11:00 +21°C° 0 mm 3 mps 751 mmHg 61%
    12:00 +22°C° 0 mm 3 mps 750 mmHg 59%
    13:00 +22°C° 0.2 mm 3 mps 750 mmHg 62%
    14:00 +22°C° 0.2 mm 3 mps 749 mmHg 64%
    15:00 +22°C° 0.2 mm 3 mps 749 mmHg 67%
    16:00 +21°C° 0.5 mm 4 mps 748 mmHg 71%
    17:00 +21°C° 0.5 mm 4 mps 748 mmHg 76%
    18:00 +20°C° 0.5 mm 4 mps 747 mmHg 80%
    19:00 +19°C° 0.2 mm 3 mps 747 mmHg 83%
    20:00 +18°C° 0.2 mm 2 mps 746 mmHg 85%
    21:00 +17°C° 0.2 mm 2 mps 746 mmHg 88%
    22:00 +18°C° 0.5 mm 1 mps 745 mmHg 90%
    23:00 +16°C° 0.5 mm 1 mps 745 mmHg 93%

    Tomorrow, 27 June, Thursday

    Time Temperature Precipitation Wind Pressure Humidity
    00:00 +14°C° 0.5 mm 0 mps 744 mmHg 95%
    01:00 +15°C° 1.7 mm 1 mps 744 mmHg 96%
    02:00 +15°C° 1.7 mm 1 mps 743 mmHg 97%
    03:00 +15°C° 1.7 mm 1 mps 743 mmHg 98%
    04:00 +16°C° 0 mm 1 mps 742 mmHg 97%
    05:00 +16°C° 0 mm 1 mps 742 mmHg 96%
    06:00 +15°C° 0 mm 0 mps 741 mmHg 95%
    07:00 +18°C° 0 mm 1 mps 741 mmHg 93%
    08:00 +17°C° 0 mm 2 mps 740 mmHg 91%
    09:00 +18°C° 0 mm 3 mps 740 mmHg 90%
    10:00 +18°C° 0.2 mm 3 mps 739 mmHg 90%
    11:00 +18°C° 0.2 mm 4 mps 738 mmHg 91%
    12:00 +18°C° 0.2 mm 4 mps 738 mmHg 92%
    13:00 +18°C° 2.9 mm 4 mps 737 mmHg 94%
    14:00 +18°C° 2.9 mm 4 mps 736 mmHg 96%
    15:00 +17°C° 2.9 mm 4 mps 736 mmHg 97%
    16:00 +17°C° 2.2 mm 5 mps 735 mmHg 97%
    17:00 +17°C° 2.2 mm 5 mps 734 mmHg 98%
    18:00 +17°C° 2.2 mm 5 mps 733 mmHg 98%
    19:00 +17°C° 3.1 mm 5 mps 732 mmHg 98%
    20:00 +17°C° 3.1 mm 5 mps 731 mmHg 98%
    21:00 +17°C° 3.1 mm 5 mps 731 mmHg 98%
    22:00 +17°C° 1.9 mm 5 mps 730 mmHg 97%
    23:00 +18°C° 1.9 mm 4 mps 729 mmHg 97%

    Day after tomorrow, 28 June, Friday

    Time Temperature Precipitation Wind Pressure Humidity
    00:00 +19°C° 1.9 mm 4 mps 728 mmHg 97%
    01:00 +18°C° 0.7 mm 4 mps 728 mmHg 97%
    02:00 +18°C° 0.7 mm 3 mps 727 mmHg 97%
    03:00 +18°C° 0.7 mm 3 mps 727 mmHg 97%
    04:00 +18°C° 0 mm 4 mps 727 mmHg 96%
    05:00 +17°C° 0 mm 4 mps 726 mmHg 95%
    06:00 +16°C° 0 mm 5 mps 726 mmHg 94%
    07:00 +15°C° 0 mm 5 mps 726 mmHg 94%
    08:00 +15°C° 0 mm 5 mps 726 mmHg 93%
    09:00 +15°C° 0 mm 6 mps 726 mmHg 93%
    10:00 +15°C° 0.1 mm 6 mps 726 mmHg 91%
    11:00 +16°C° 0.1 mm 6 mps 726 mmHg 89%
    12:00 +16°C° 0.1 mm 6 mps 726 mmHg 87%
    13:00 +16°C° 0.3 mm 7 mps 726 mmHg 86%
    14:00 +15°C° 0.3 mm 7 mps 726 mmHg 86%
    15:00 +15°C° 0.3 mm 7 mps 726 mmHg 85%
    16:00 +15°C° 0.1 mm 7 mps 726 mmHg 85%
    17:00 +15°C° 0.1 mm 7 mps 726 mmHg 84%
    18:00 +14°C° 0.1 mm 7 mps 726 mmHg 84%
    19:00 +13°C° 0 mm 6 mps 726 mmHg 85%
    20:00 +11°C° 0 mm 6 mps 725 mmHg 85%
    21:00 +10°C° 0 mm 5 mps 725 mmHg 86%
    22:00 +10°C° 0.2 mm 5 mps 725 mmHg 89%
    23:00 +10°C° 0.2 mm 5 mps 725 mmHg 92%

    29 June, Saturday

    Time Temperature Precipitation Wind Pressure Humidity
    00:00 +10°C° 0.2 mm 5 mps 725 mmHg 94%
    01:00 +10°C° 0.3 mm 5 mps 725 mmHg 95%
    02:00 +10°C° 0.3 mm 5 mps 725 mmHg 95%
    03:00 +10°C° 0.3 mm 5 mps 725 mmHg 96%
    04:00 +10°C° 0.2 mm 5 mps 725 mmHg 95%
    05:00 +10°C° 0.2 mm 6 mps 726 mmHg 95%
    06:00 +10°C° 0.2 mm 6 mps 726 mmHg 95%
    07:00 +10°C° 0.3 mm 6 mps 726 mmHg 95%
    08:00 +10°C° 0.3 mm 6 mps 727 mmHg 95%
    09:00 +10°C° 0.3 mm 6 mps 727 mmHg 95%
    10:00 +10°C° 0.3 mm 6 mps 728 mmHg 94%
    11:00 +10°C° 0.3 mm 6 mps 729 mmHg 94%
    12:00 +10°C° 0.3 mm 6 mps 729 mmHg 93%
    13:00 +10°C° 0.1 mm 6 mps 730 mmHg 93%
    14:00 +10°C° 0.1 mm 6 mps 731 mmHg 92%
    15:00 +10°C° 0.1 mm 6 mps 731 mmHg 92%
    16:00 +10°C° 0.1 mm 5 mps 732 mmHg 92%
    17:00 +9°C° 0.1 mm 5 mps 732 mmHg 92%
    18:00 +9°C° 0.1 mm 5 mps 733 mmHg 93%
    19:00 +10°C° 0.1 mm 4 mps 733 mmHg 93%
    20:00 +8°C° 0.1 mm 4 mps 734 mmHg 94%
    21:00 +8°C° 0.1 mm 4 mps 734 mmHg 95%
    22:00 +9°C° 0.1 mm 3 mps 735 mmHg 95%
    23:00 +9°C° 0.1 mm 3 mps 735 mmHg 96%

    30 June, Sunday

    Time Temperature Precipitation Wind Pressure Humidity
    00:00 +9°C° 0.1 mm 3 mps 735 mmHg 96%
    01:00 +9°C° 0.3 mm 3 mps 735 mmHg 96%
    02:00 +9°C° 0.3 mm 2 mps 735 mmHg 97%
    03:00 +9°C° 0.3 mm 2 mps 735 mmHg 97%
    04:00 +9°C° 0.6 mm 2 mps 735 mmHg 97%
    05:00 +9°C° 0.6 mm 2 mps 735 mmHg 97%
    06:00 +9°C° 0.6 mm 3 mps 736 mmHg 97%
    07:00 +10°C° 0.4 mm 3 mps 736 mmHg 97%
    08:00 +10°C° 0.4 mm 3 mps 736 mmHg 97%
    09:00 +10°C° 0.4 mm 3 mps 737 mmHg 96%
    10:00 +10°C° 0.5 mm 3 mps 737 mmHg 96%
    11:00 +10°C° 0.5 mm 3 mps 738 mmHg 95%
    12:00 +11°C° 0.5 mm 3 mps 738 mmHg 94%
    13:00 +11°C° 0.2 mm 3 mps 738 mmHg 92%
    14:00 +13°C° 0.2 mm 2 mps 739 mmHg 91%
    15:00 +14°C° 0.2 mm 2 mps 739 mmHg 89%
    16:00 +14°C° 0.1 mm 1 mps 739 mmHg 88%
    17:00 +15°C° 0.1 mm 1 mps 740 mmHg 87%
    18:00 +15°C° 0.1 mm 1 mps 740 mmHg 86%
    19:00 +13°C° 0 mm 0 mps 740 mmHg 87%
    20:00 +13°C° 0 mm 0 mps 741 mmHg 89%
    21:00 +12°C° 0 mm 0 mps 741 mmHg 90%
    22:00 +13°C° 0 mm 1 mps 741 mmHg 90%
    23:00 +12°C° 0 mm 1 mps 741 mmHg 89%

    1 July, Monday

    Time Temperature Precipitation Wind Pressure Humidity
    00:00 +11°C° 0 mm 1 mps 741 mmHg 89%
    01:00 +11°C° 0 mm 1 mps 742 mmHg 89%
    02:00 +11°C° 0 mm 1 mps 742 mmHg 89%
    03:00 +10°C° 0 mm 1 mps 742 mmHg 90%
    04:00 +11°C° 0 mm 1 mps 742 mmHg 90%
    05:00 +12°C° 0 mm 1 mps 742 mmHg 89%
    06:00 +12°C° 0 mm 1 mps 743 mmHg 89%
    07:00 +14°C° 0 mm 1 mps 743 mmHg 86%
    08:00 +15°C° 0 mm 1 mps 743 mmHg 82%
    09:00 +18°C° 0 mm 1 mps 743 mmHg 78%
    10:00 +19°C° 0 mm 1 mps 743 mmHg 74%
    11:00 +20°C° 0 mm 1 mps 742 mmHg 70%
    12:00 +20°C° 0 mm 0 mps 742 mmHg 66%
    13:00 +20°C° 0 mm 0 mps 742 mmHg 63%
    14:00 +20°C° 0 mm 0 mps 742 mmHg 61%
    15:00 +21°C° 0 mm 0 mps 741 mmHg 58%
    16:00 +21°C° 0 mm 0 mps 741 mmHg 60%
    17:00 +21°C° 0 mm 0 mps 741 mmHg 62%
    18:00 +22°C° 0 mm 1 mps 740 mmHg 64%
    19:00 +21°C° 0 mm 1 mps 740 mmHg 69%
    20:00 +19°C° 0 mm 1 mps 740 mmHg 73%
    21:00 +16°C° 0 mm 1 mps 740 mmHg 78%
    22:00 +15°C° 0 mm 2 mps 740 mmHg 80%
    23:00 +15°C° 0 mm 2 mps 740 mmHg 81%
    Show more